sat.trackr.live / text

‹ back to catalog

YAOGAN-2

NORAD 31490 · 2007-019A

PAYLOAD ACTIVE UNKNOWN

§ Identity

Operator
Country
PRC
Launch date
2007-05-25
Launch site
JSC
Launch vehicle
Mass (kg)
RCS (m²)
3.06

External: N2YO · Heavens-Above · Gunter

§ Orbital elements

Epoch: 2026-09-19T08:42:35.429184Z

Period
97.11 min
Inclination
98.2500°
Eccentricity
0.0019945
Mean motion
14.82785920 rev/d
Perigee alt
606.6 km
Apogee alt
634.5 km
Semi-major
6,998.7 km
B*
6.4044e-5
RAAN
126.0213°
Arg perigee
333.3143°
Mean anomaly
26.7041°
Rev number
4,157

§ Raw data

YAOGAN-21 31490U 07019A   26262.36291006  .00000461  00000+0  64044-4 0  99912 31490  98.2500 126.0213 0019945 333.3143  26.7041 14.82785920 41579

JSON: /api/v1/satellites/31490 · /tle

For live sub-satellite position, see the globe view (requires WebGL).

§ Visibility from observer

Set your observer location to see the next 7 days of passes ≥ 10°. The values pass through the URL so the page stays shareable.

No JS? Fill the form by hand. The geolocation button needs JavaScript.